CDT,Max TemperatureF,Mean TemperatureF,Min TemperatureF,Max Dew PointF,MeanDew PointF,Min DewpointF,Max Humidity, Mean Humidity, Min Humidity, Max Sea Level PressureIn, Mean Sea Level PressureIn, Min Sea Level PressureIn, Max VisibilityMiles, Mean VisibilityMiles, Min VisibilityMiles, Max Wind SpeedMPH, Mean Wind SpeedMPH, Max Gust SpeedMPH,PrecipitationIn, CloudCover, Events, WindDirDegrees
2013-10-1,79,66,52,53,44,35,89,55,21,29.98,29.91,29.73,10,10,10,22,8,26,0.00,0,,52
2013-10-2,86,71,55,65,60,48,93,68,43,29.94,29.85,29.77,10,8,1,28,11,35,2.07,4,Rain-Thunderstorm,129
2013-10-3,73,67,61,64,60,57,100,84,68,29.82,29.76,29.71,10,10,5,21,10,29,0.19,7,Rain-Thunderstorm,94
2013-10-4,81,62,42,66,57,32,93,71,48,29.94,29.70,29.59,10,10,10,29,16,37,0.00,6,,119
2013-10-5,49,44,39,36,32,31,79,65,50,29.96,29.94,29.91,10,10,10,33,21,43,T,6,Rain,275
2013-10-6,65,54,42,40,35,21,83,51,19,30.11,30.00,29.93,10,10,10,31,17,39,T,5,Rain,311
2013-10-7,77,58,38,44,40,35,92,61,29,30.12,30.05,29.94,10,10,10,16,9,21,0.00,0,,225
2013-10-8,81,66,51,45,41,38,63,44,25,29.93,29.86,29.78,10,10,10,28,18,36,0.00,0,,175
2013-10-9,79,67,54,51,47,45,77,55,32,29.91,29.86,29.82,10,10,10,24,16,32,0.00,0,,163
2013-10-10,80,68,56,58,54,51,86,64,42,29.90,29.80,29.66,10,10,10,26,15,35,0.00,0,,160
2013-10-11,72,60,47,58,51,41,90,64,38,29.95,29.67,29.55,10,10,10,28,17,37,0.02,3,Rain,212
2013-10-12,66,53,40,42,35,29,92,59,26,30.29,30.16,29.95,10,10,10,16,6,22,0.00,0,,298
2013-10-13,69,54,39,39,34,31,86,55,24,30.40,30.31,30.19,10,10,10,21,10,29,T,3,,134
2013-10-14,61,54,46,59,49,35,93,67,40,30.17,29.90,29.69,10,8,0,31,16,39,1.36,7,Fog-Rain-Thunderstorm,166
2013-10-15,49,45,41,38,35,33,73,67,61,30.18,30.05,29.89,10,10,10,31,20,40,0.00,7,,310
2013-10-16,57,47,36,37,33,20,92,58,24,30.17,30.09,29.98,10,10,10,16,7,20,0.00,2,,287
2013-10-17,53,43,32,39,35,30,89,72,54,30.15,30.02,29.93,10,10,10,28,12,35,0.00,3,,304
2013-10-18,52,41,30,34,29,24,92,64,35,30.19,30.13,30.07,10,10,10,15,7,20,0.00,2,,281
2013-10-19,65,49,33,39,33,29,82,57,31,30.05,29.93,29.81,10,10,10,21,9,25,0.00,0,,260
2013-10-20,65,50,34,40,36,32,89,62,34,30.08,29.86,29.75,10,10,10,26,12,32,0.00,2,,308
2013-10-21,59,45,30,40,34,29,96,67,37,30.13,30.06,29.96,10,10,10,17,7,24,T,4,,270
2013-10-22,60,48,36,42,38,34,89,68,47,30.16,30.04,29.94,10,10,10,25,12,33,T,4,,320
2013-10-23,66,51,36,41,37,34,92,67,42,30.25,30.12,29.99,10,10,10,26,10,33,0.00,3,,265
2013-10-24,47,41,34,37,30,21,86,62,37,30.46,30.37,30.26,10,10,10,22,5,26,T,8,,345
2013-10-25,60,48,36,34,30,26,70,52,33,30.40,30.26,30.08,10,10,10,25,13,32,0.00,2,,200
2013-10-26,55,44,33,38,31,24,85,58,30,30.29,30.20,30.07,10,10,10,21,10,25,0.00,0,,329
2013-10-27,73,54,34,40,34,26,75,51,27,30.14,29.94,29.80,10,10,10,16,9,24,0.00,0,,209
2013-10-28,51,45,38,38,35,33,85,69,52,30.17,30.10,29.96,10,10,10,21,14,28,T,4,,52
2013-10-29,45,43,41,45,42,39,100,92,83,30.11,30.04,29.96,10,4,0,15,9,21,0.09,8,Fog-Rain,42
2013-10-30,51,43,34,43,39,35,100,86,71,30.04,29.90,29.79,10,8,0,21,5,24,0.32,6,Fog-Rain-Snow-Thunderstorm,346
2013-10-31,59,46,32,40,35,32,100,69,37,29.77,29.69,29.58,10,6,0,29,11,36,0.00,2,Fog,266